    Observer details:
    104 San Marcello Pistoiese.  Observers L. Tesi, P. Bacci, G. Fagioli.
        Measurers P. Bacci, E. Rossi.  0.60-m f/4 reflector + CCD.
    204 Schiaparelli Observatory.  Observer L. Buzzi.  0.38-m f/6.8 reflector
        + CCD.
    235 CAST Observatory, Talmassons.  Observer R. Ligustri.  0.35-m f/6 reflector
        + CCD.
    300 Bisei Spaceguard Center--BATTeRS.  Observers S. Okumura, N. Hashimoto.
        1.0-m f/3.0 reflector + CCD.
    461 University of Szeged, Piszkesteto Stn. (Konkoly).  Observer K. Sarneczky.
        0.60-m Schmidt + CCD.
    470 Ceccano.  Observers G. Masi, F. Nocentini.  Measurers G. Masi, U. Masi.
        0.36-m f/8.7 reflector + CCD.
    703 Catalina Sky Survey.  Observer A. D. Grauer.  Measurers A. Boattini,
        E. J. Christensen, A. R. Gibbs, A. D. Grauer, R. E. Hill, J. A. Johnson,
        R. A. Kowalski, S. M. Larson, R. H. McNaught.  0.68-m Schmidt + CCD.
    850 Cordell-Lorenz Observatory, Sewanee.  Observer D. T. Durig.  0.30-m f/2.5
        Schmidt-Cassegrain + 765x510 CCD.
    900 Moriyama.  Observer Y. Ikari.  0.26-m f/7.0 reflector + CCD.
    C77 Bernezzo Observatory.  Observer A. Mantero.  0.25-m f/4 reflector + CCD.
    F65 Haleakala-Faulkes Telescope North.  Observers E. Guido, N. Howes.  2.0-m
        f/10.0 Ritchey-Chretien + CCD.
    H21 Astronomical Research Observatory, Westfield.  Observer R. Holmes.
        Measurers L. Buzzi, H. Devore, S. Foglia, T. Vorobjov.  0.61-m f/4.0
        astrograph + CCD.
    H36 Sandlot Observatory, Scranton.  Observer G. Hug.  0.56-m reflector + CCD.
    I89 RAS Observatory, Nerpio.  Observers M. Urbanik, J. Jahn.  0.15-m f/7.3
        refractor + CCD, 0.43-m f/6.8 astrograph + CCD.
    
    Orbital elements:
    2013 AU27                                                Earth MOID = 0.1047 AU
    Epoch 2012 Sept. 30.0 TT = JDT 2456200.5                MPC
    M 304.76493              (2000.0)            P               Q
    n   0.57010857     Peri.  169.18924     -0.30602402     -0.82193308
    a   1.4404483      Node   297.04944     +0.82827486     +0.01891649
    e   0.2476592      Incl.   32.64230     +0.46937198     -0.56926987
    P   1.73           H   18.7           G   0.15           U   7
    Residuals in seconds of arc
    130107 703  0.1+  0.5-    130107 104  0.2+  0.1-    130108 461  0.1-  0.2+
    130107 703  0.1-  0.4-    130107 470  0.2-  0.6-    130108 461  0.1+  0.0
    130107 703  0.1-  0.2-    130107 470  0.3+  0.2-    130108 I89  0.2-  0.3-
    130107 H21  0.3+  0.3+    130107 470  0.2+  0.1-    130108 I89  0.2-  0.5-
    130107 H21  0.3+  0.4+    130107 C77  0.2+  0.3+    130108 I89  0.1+  0.2-
    130107 703  0.0   0.1+    130107 235  0.2-  0.3-    130108 I89  0.0   0.3-
    130107 703  0.0   0.1+    130107 C77  1.1-  0.5-    130108 461  0.0   0.2+
    130107 703  0.1-  0.1-    130107 C77  0.1+  0.3+    130108 461  0.1+  0.2+
    130107 H21  0.4+  0.4+    130107 235  0.0   0.4-    130108 461  0.2-  0.2+
    130107 703  0.0   0.1+    130107 C77  0.2+  0.3+    130108 461  0.2-  0.0
    130107 H36  0.1+  0.1-    130107 C77  0.0   0.2-    130108 461  0.1-  0.2+
    130107 H36  0.1+  0.4+    130107 461  0.0   0.0     130108 204  0.3-  0.2-
    130107 H36  0.2-  0.3-    130107 461  0.0   0.2+    130108 204  0.3-  0.3-
    130107 H36  0.2-  0.6-    130107 461  0.1+  0.2+    130108 204  0.3-  0.2-
    130107 H36  0.1-  0.3-    130107 461  0.0   0.3+    130108 204  0.3-  0.4-
    130107 703  0.1-  0.1-    130107 461  0.1-  0.2+    130108 204  0.2-  0.3-
    130107 703  0.1-  0.2+    130107 461  0.0   0.1+    130108 850  0.2+  0.2+
    130107 703  0.1-  0.5+    130107 461  0.0   0.0     130108 850  0.4+  0.2-
    130107 703  0.4-  0.2+    130107 461  0.1-  0.2+    130108 850  0.5+  0.4+
    130107 703  0.2-  0.1-    130107 461  0.0   0.3+    130108 850  0.4+  0.7+
    130107 703  0.2+  0.2-    130107 I89  0.1-  0.1+    130108 850  0.2+  0.7+
    130107 703  0.1+  0.0     130107 I89  0.1+  0.2-    130108 H36  0.6-  0.9-
    130107 703  0.3-  0.3-    130107 I89  0.1-  0.2+    130108 H36  0.0   0.4-
    130107 300  0.3+  0.0     130107 I89  0.0   0.1+    130108 H36  0.1-  0.3-
    130107 300  0.4+  0.1+    130107 I89  0.2-  0.1-    130108 F65  0.0   0.3+
    130107 300  0.3+  0.0     130107 I89  0.2-  0.0     130108 F65  0.2-  0.2+
    130107 300  0.3+  0.2+    130107 I89  0.1-  0.2+    130108 F65  0.1-  0.1+
    130107 300  0.3+  0.3+    130107 I89  0.0   0.1+    130108 900  0.2+  0.3-
    130107 300  0.4+  0.1+    130107 I89  0.1-  0.1+    130108 900  0.1+  0.2-
    130107 300  0.2+  0.1+    130107 I89  0.1-  0.3+    130108 900  0.3+  0.2-
    130107 104  0.2+  0.2-    130108 461  0.1-  0.1+
    130107 104  0.3+  0.2-    130108 461  0.1+  0.5+
    
    Ephemeris:
    2013 AU27                a,e,i = 1.44, 0.25, 33                  q = 1.0837
    Date    TT    R. A. (2000) Decl.     Delta      r     Elong.  Phase     V
    2012 12 09    13 50 04.7 +68 18 18   0.3872  1.1057    97.7    62.0    19.1
    ...
    2012 12 24    12 48 40.7 +65 10 25   0.2575  1.0881   107.3    59.7    18.1
    ...
    2013 01 01    11 40 41.6 +60 36 12   0.1883  1.0842   117.9    53.3    17.2
    ...
    2013 01 07    10 30 29.5 +51 39 12   0.1421  1.0839   132.1    42.3    16.3
    2013 01 08    10 17 54.6 +49 16 50   0.1355  1.0840   135.4    39.6    16.1
    2013 01 09    10 05 17.7 +46 34 30   0.1294  1.0842   138.9    36.6    15.9
    ...
    2013 01 15    08 53 54.9 +22 57 11   0.1068  1.0869   164.4    14.1    14.8
    ...
    2013 01 23    07 44 17.5 -12 10 28   0.1279  1.0938   147.1    29.3    15.7
    ...
    2013 02 07    06 43 35.1 -36 54 47   0.2484  1.1167   115.7    52.7    17.9
    
    A. U. Tomatic                (C) Copyright 2013 MPC           M.P.E.C. 2013-A44
    

    Read MPEC 2013-A43 Read MPEC 2013-A45


    MPEC number:

    Enter an MPEC number in one of the following forms:

    • 1997-B01 (the full form)
    • J97B01 (the packed version of the full form)
    • B01 (the abbreviated form)